Regional Weather Roundup
Issued by NWS Albany, NY

Home | Current Version | Previous Version | Graphics & Text | Print | Product List | Glossary On
Versions: 1 2 3 4 5 6 7 8 9 10 11 12 13 14 15 16 17 18 19 20 21 22 23 24 25 26 27 28 29 30 31 32 33 34 35 36 37 38 39 40 41 42 43 44 45 46 47 48 49 50
000
ASUS41 KALY 270910
RWRALY

NEW YORK STATE HOURLY WEATHER ROUNDUP
NATIONAL WEATHER SERVICE ALBANY NY
500 AM EDT SAT MAY 27 2017

NOTE: "FAIR" INDICATES FEW OR NO CLOUDS BELOW 12,000 FEET WITH NO
SIGNIFICANT WEATHER AND/OR NO OBSTRUCTIONS TO VISIBILITY.

NYZ032-033-038>043-046>054-057>066-NYZ062>081-082-084-271000-
EAST


CITY           SKY/WX    TMP DP  RH WIND       PRES   REMARKS
ALBANY         MOCLDY    54  50  86 N6        29.86R
GLENS FALLS    NOT AVBL
POUGHKEEPSIE   CLOUDY    54  52  93 CALM      29.83R
NEWBURGH       PTCLDY    52  52 100 W7        29.85R
MONTGOMERY     PTCLDY    58  51  78 NW9       29.83R
WHITE PLAINS   PTCLDY    55  51  86 NW3       29.83R
ISLIP          CLEAR     55  54  96 NW3       29.83R
NEW YORK CITY  PTCLDY    63  53  70 W14       29.83R
CENTRAL PARK   PTCLDY    59  54  83 W5        29.87R
$$

NYZ005>009-017-018-044>046-055-056-271000-
CENTRAL


CITY           SKY/WX    TMP DP  RH WIND       PRES   REMARKS
FULTON         CLOUDY    56  54  93 CALM      29.87S FOG
SYRACUSE       LGT RAIN  56  56 100 NW5       29.86S
ROME           CLOUDY    54  50  86 CALM      29.88S
ELMIRA         CLOUDY    58  52  80 VRB3      29.88R
BINGHAMTON     CLOUDY    53  53 100 W8        29.87S
MONTICELLO     CLOUDY    54  54 100 CALM      29.87R
$$

NYZ026>034-041>043-087-271000-
NORTH


CITY           SKY/WX    TMP DP  RH WIND       PRES   REMARKS
WATERTOWN      CLOUDY    52  52 100 NE5       29.87S
FORT DRUM      NOT AVBL
OGDENSBURG     MOCLDY    51  51  97 CALM      29.89R
MASSENA        CLOUDY    51  51 100 CALM      29.90R
SARANAC LAKE   FOG       40  40 100 CALM      29.87S VSB 1/2
PLATTSBURGH    CLOUDY    49  47  93 CALM      29.87R
$$

NYZ001>004-010>016-019>021-085-271000-
WEST


CITY           SKY/WX    TMP DP  RH WIND       PRES   REMARKS
NIAGARA FALLS  CLOUDY    58  54  86 CALM      29.87S
BUFFALO        CLOUDY    54  52  93 SW9       29.88S
DUNKIRK        PTCLDY    51  51 100 S5        29.89F
JAMESTOWN      MOCLDY    52  48  87 CALM      29.90F VSB 1
WELLSVILLE     CLOUDY    54  50  86 CALM      29.92S
ROCHESTER      CLOUDY    57  55  93 W6        29.88S
PENN YAN       CLOUDY    58  52  80 CALM      29.88S
$$

             KEY
       WCI = WIND CHILL INDEX
       VSB = VISIBILITY
       HX  = HEAT INDEX
$$



USA.gov is the U.S. government's official web portal to all federal, state and local government web resources and services.